Temperature
16 16 17 17 17 18 20 23 25 25 25 25 24 24 24 23 23 20 19 19 19 19 19 19 18 18 17 17 17 17 16 16 16 16 16 16 16 16 16 16 16 15 15 15 15 15 15 15 15
16 16 17 18 18 19 21 23 24 24 24 23 24 24 24 24 22 21 19 19 19 19 19 18 18 18 17 17 17 16 16 16 16 16 16 16 16 16 16 15 15 15 15 15 15 15 15 15 15
16 16 17 18 19 20 22 24 24 24 24 23 24 24 23 23 22 20 19 19 19 19 18 18 18 18 17 17 17 16 16 16 16 16 16 16 16 15 15 15 15 15 15 15 15 15 15 15 15
16 16 18 18 19 22 23 24 23 24 24 23 23 23 22 21 21 20 19 19 19 18 18 18 18 17 17 17 17 16 16 16 16 16 16 16 16 15 15 15 15 15 15 15 15 15 15 15 15
16 17 18 18 20 22 23 24 23 23 23 23 23 22 21 21 20 20 19 19 18 18 18 18 17 17 17 17 17 16 16 16 16 16 16 16 15 15 15 15 15 15 15 15 15 15 14 14 14
16 18 18 19 21 23 23 23 23 23 23 23 23 22 21 20 20 19 19 18 18 18 17 18 17 17 17 17 17 16 16 16 16 16 16 15 15 15 15 15 15 15 15 15 14 14 14 14 14
17 17 18 19 21 22 23 22 22 22 22 22 22 21 21 19 19 19 18 18 17 17 17 17 17 17 17 17 17 16 16 16 16 15 15 15 15 15 15 15 14 14 14 14 14 14 14 14 14
16 17 18 19 20 21 22 21 21 21 21 21 21 21 20 19 18 18 18 17 17 17 17 17 17 16 17 16 16 16 16 16 16 15 15 15 15 15 15 14 14 14 14 14 14 14 14 14 14
16 16 17 19 20 21 21 21 20 20 20 20 20 20 19 19 18 18 17 17 17 16 16 16 16 16 16 16 16 16 16 15 15 15 15 15 15 14 14 14 14 14 14 14 14 14 14 14 13
16 15 18 19 20 20 20 20 19 19 19 19 19 19 19 18 17 17 17 17 16 16 16 16 16 16 16 15 15 15 15 15 15 15 15 15 14 14 14 14 14 14 14 14 14 14 14 13 13
17 16 18 19 19 19 18 18 18 18 18 19 19 18 18 17 17 17 17 17 16 16 16 15 15 15 15 15 15 15 15 15 15 15 15 14 14 14 14 14 14 14 14 13 13 13 13 13 13
17 17 18 18 17 17 17 17 17 18 18 18 18 18 17 17 17 17 17 16 16 16 16 15 15 15 15 15 15 15 14 14 14 14 14 14 14 14 14 14 14 14 13 13 13 13 13 13 13
16 17 17 17 17 17 17 16 17 17 17 17 17 17 17 17 17 16 16 16 16 16 15 15 15 15 15 15 14 14 14 14 14 14 14 14 14 13 14 14 13 13 13 13 13 13 12 12 12
17 17 17 17 17 17 16 16 16 17 17 17 17 17 17 16 16 16 16 16 15 15 15 15 15 15 15 15 14 14 14 14 14 14 14 14 13 13 13 13 13 13 13 13 13 12 12 12 12
16 15 16 16 17 17 16 15 16 17 17 17 17 17 17 16 16 16 16 15 15 15 15 15 15 15 14 14 14 14 14 13 13 14 14 13 13 13 13 13 13 13 12 12 12 12 12 11 11
15 14 14 17 17 17 15 14 17 18 17 17 17 17 16 16 16 15 15 15 15 15 15 15 14 14 14 14 14 13 13 13 13 13 13 13 13 13 13 13 13 12 12 12 12 11 11 11 11
14 14 15 16 17 17 15 15 17 18 17 17 17 17 17 16 16 15 15 15 14 14 14 14 14 14 14 13 13 13 13 13 13 13 13 13 13 13 13 13 12 12 12 11 11 11 11 11 11
14 15 16 16 16 16 15 15 16 17 17 17 17 17 16 16 15 15 15 14 14 14 14 14 14 14 13 13 13 13 13 12 13 12 12 13 12 12 12 12 12 12 11 11 11 11 11 11 11
15 15 15 16 16 15 15 15 16 16 17 16 17 17 16 16 15 15 14 14 14 14 14 13 13 13 13 13 13 12 12 12 12 12 12 12 12 12 12 12 11 11 11 11 11 11 10 10 10
14 14 14 15 16 15 14 14 15 16 16 16 16 16 16 15 15 14 14 14 13 13 13 13 13 13 13 12 12 12 12 12 12 12 12 12 12 11 11 11 11 11 11 11 10 10 10 10 10
14 13 14 14 14 14 14 13 15 16 16 16 16 16 16 15 15 14 14 13 13 13 13 13 12 12 12 12 12 12 11 11 11 11 11 11 11 11 11 11 11 10 10 10 10 10 10 9 9
13 14 14 14 13 12 13 12 14 15 15 15 15 15 15 15 14 14 13 13 12 12 12 12 12 12 12 12 11 11 11 11 11 11 11 11 11 10 10 10 10 10 10 10 9 9 9 9 9
13 14 13 13 12 11 12 11 13 15 14 14 14 15 15 14 14 13 13 12 12 12 12 11 11 11 11 11 11 11 11 11 11 10 10 10 10 10 10 9 9 9 9 9 9 9 9 9 9
13 13 12 12 11 10 12 12 13 14 14 14 14 15 15 14 13 13 12 12 12 11 11 11 11 11 11 11 11 11 10 10 10 10 10 10 10 9 9 9 9 9 9 8 8 8 8 8 8
12 11 10 10 10 10 13 13 13 15 15 15 14 14 14 13 13 12 12 11 11 11 11 11 10 10 10 10 10 10 10 10 10 9 9 9 9 9 9 8 8 8 8 8 8 8 8 8 8
11 11 11 10 11 12 13 12 14 15 14 15 15 14 13 13 12 12 11 11 11 10 10 10 10 10 10 10 10 10 9 9 9 9 9 8 8 8 8 8 8 8 7 7 7 7 7 7 7
11 11 12 11 11 10 11 13 13 14 13 13 14 14 13 12 12 11 11 11 10 10 10 10 9 9 9 9 9 9 9 9 9 9 8 8 8 7 7 7 7 7 7 7 7 7 7 7 7
12 12 10 10 10 10 12 13 12 12 12 13 12 12 13 12 12 11 11 10 10 10 9 9 9 9 9 9 9 9 9 8 8 8 8 8 7 7 7 7 7 6 6 6 6 6 6 6 6
10 11 11 10 10 10 11 12 14 13 13 12 12 12 12 12 11 11 10 10 9 9 9 8 8 8 8 8 8 8 8 8 7 7 7 7 7 6 6 6 6 6 6 6 6 6 6 6 6
11 11 10 9 9 10 10 11 14 13 13 12 12 12 12 12 11 10 10 10 9 9 8 8 8 8 8 7 7 7 7 7 7 7 6 6 6 6 6 6 6 6 5 5 5 5 5 5 5
Wind_Speed
8 11 8 3 4 6 8 6 3 2 2 5 5 4 5 5 5 6 5 5 6 8 11 11 10 9 8 8 8 7 7 6 6 7 7 7 7 6 6 6 7 6 6 6 6 6 6 7 7
9 9 5 4 5 7 7 8 4 2 5 5 1 3 3 1 5 8 5 5 5 8 11 11 10 9 8 8 7 7 7 6 6 6 7 6 6 6 6 6 7 6 6 6 6 6 6 6 6
10 8 4 4 6 7 3 3 5 5 4 1 1 1 2 2 5 5 6 5 5 6 9 12 12 9 8 7 7 7 6 6 6 6 6 6 6 6 6 6 6 6 6 6 5 5 5 6 6
5 4 5 7 12 9 5 2 5 1 1 1 2 1 2 4 4 4 5 4 4 5 7 12 13 10 9 8 7 7 7 7 6 6 6 6 6 6 6 7 6 6 6 6 5 5 5 5 6
4 4 6 9 13 10 5 2 2 2 2 2 2 3 1 3 6 5 4 3 3 4 6 10 12 11 9 8 7 7 7 7 7 6 6 6 6 6 6 6 6 6 6 6 6 6 6 5 6
4 4 7 10 11 8 4 1 2 5 3 2 2 4 1 4 6 4 4 2 3 4 4 8 11 10 9 9 8 8 8 8 7 7 7 7 7 7 7 7 7 7 7 6 6 6 6 6 6
5 5 9 11 8 5 2 1 3 4 4 3 3 3 2 5 6 5 4 2 3 3 3 4 7 8 9 8 9 8 8 8 8 8 9 8 8 8 8 8 8 8 8 7 7 7 7 7 7
4 5 8 9 9 5 0 1 3 5 5 4 4 4 1 3 4 4 3 2 2 1 2 3 4 6 7 8 9 9 9 9 9 9 9 9 9 9 9 9 9 10 9 9 8 8 8 8 9
4 5 8 7 5 2 2 1 2 3 4 5 4 4 2 2 2 1 1 1 1 1 1 3 3 3 5 7 8 9 8 8 9 9 10 10 9 9 9 10 11 11 11 10 10 9 9 8 8
5 6 7 5 5 4 4 4 4 4 7 7 6 3 1 1 1 2 3 3 3 3 2 2 3 3 2 3 5 6 7 7 8 7 8 8 8 8 8 9 12 13 12 11 10 10 9 8 7
7 7 7 7 6 6 6 7 6 8 8 8 5 2 1 2 4 4 4 3 2 3 2 2 3 2 3 2 2 2 3 4 6 7 7 7 6 5 4 4 7 9 10 8 8 8 8 8 7
8 9 8 7 5 5 7 7 8 10 9 7 6 4 4 5 5 4 3 3 2 2 3 3 3 3 3 2 2 2 2 2 3 5 7 5 3 3 3 3 4 5 6 6 6 5 7 8 8
13 10 9 8 6 7 9 11 10 12 11 8 6 4 5 6 6 4 2 2 2 2 2 3 3 3 3 3 3 3 3 3 4 4 5 5 3 4 4 3 4 5 5 5 5 5 6 6 6
7 8 9 9 10 8 10 11 10 11 9 8 6 6 7 7 6 4 3 3 2 2 2 2 3 3 3 3 3 3 3 3 3 3 4 5 4 4 4 4 4 4 5 5 5 6 6 5 5
8 9 10 10 10 7 7 11 12 12 8 8 8 8 7 6 5 5 4 2 2 2 2 2 3 3 3 3 4 3 3 3 3 3 4 4 4 4 4 4 4 4 5 5 4 5 4 4 5
7 7 8 7 9 6 5 11 8 6 6 8 8 7 6 6 6 4 3 2 1 1 2 2 2 2 3 3 3 2 2 3 3 3 4 5 5 5 4 4 5 4 4 4 4 4 4 4 4
7 8 9 6 7 6 8 10 7 4 6 8 8 6 6 5 4 3 2 2 1 1 1 2 2 2 2 2 2 2 2 3 3 3 3 4 5 5 4 4 4 4 4 4 4 4 4 5 5
6 7 9 8 5 6 9 12 10 7 7 8 7 6 6 4 4 3 2 3 2 1 1 2 2 2 2 1 1 1 2 3 3 3 3 5 5 5 4 4 4 4 4 4 4 5 5 5 5
9 9 10 8 4 4 9 12 12 9 8 7 6 6 6 5 4 4 3 3 2 1 1 1 2 3 2 2 2 2 3 3 3 3 4 4 4 5 4 4 4 4 4 5 5 5 6 5 4
12 12 12 8 4 5 9 13 13 11 9 8 6 5 5 5 5 4 3 3 2 1 1 1 1 2 2 2 3 3 3 3 3 2 3 4 4 5 5 5 5 5 5 6 6 5 5 5 4
12 12 11 9 7 7 9 11 11 8 7 6 5 4 3 4 4 3 3 3 2 1 0 1 1 2 3 3 2 2 1 1 1 2 2 3 4 4 4 5 5 5 5 6 6 6 7 6 5
10 8 9 8 6 5 4 7 6 6 6 7 7 6 5 4 4 3 2 2 2 1 1 1 1 1 1 2 3 3 3 3 3 3 3 3 3 4 4 4 4 5 5 6 7 6 6 6 6
5 3 5 7 7 7 7 7 8 7 7 8 7 6 5 5 4 3 3 3 2 3 2 1 1 1 1 2 3 4 3 3 2 2 3 4 3 4 4 4 4 4 5 6 6 6 6 6 6
2 2 5 5 4 7 9 9 7 5 6 7 7 6 5 4 4 3 3 3 2 2 1 1 2 2 1 1 2 3 3 3 3 3 4 4 3 3 4 4 4 5 4 5 5 6 7 7 7
5 3 2 4 6 7 7 7 7 3 2 5 7 6 5 4 4 3 3 2 1 1 1 1 2 3 2 1 2 2 2 3 3 3 3 3 3 3 3 3 4 5 5 5 5 6 7 7 8
9 8 6 5 5 3 3 7 4 3 4 5 6 7 6 4 4 3 3 2 1 1 0 1 2 3 3 2 3 3 2 2 3 3 3 3 3 3 3 4 5 6 6 6 6 6 7 7 8
7 9 5 4 4 4 6 5 2 3 5 6 6 6 5 5 4 3 2 2 1 0 0 1 2 3 3 3 3 3 2 2 3 4 4 4 3 4 4 4 5 6 6 6 6 6 7 7 8
5 4 4 5 4 6 7 8 5 7 7 7 7 5 4 4 3 2 2 2 1 1 1 1 2 2 2 2 2 3 2 2 3 3 4 4 4 3 4 4 5 6 6 6 6 6 7 8 8
7 6 6 5 5 4 4 4 0 6 6 6 6 5 4 3 2 2 2 2 1 1 1 2 2 2 2 2 2 3 3 3 3 3 4 4 4 4 5 5 5 6 6 6 6 7 7 8 8
8 9 9 6 6 5 4 4 2 5 5 5 4 3 2 2 2 2 2 1 1 1 1 2 2 3 2 2 3 3 4 4 3 4 4 4 4 4 5 5 6 6 7 7 7 8 8 8 9
Wind_Direction
262 249 239 242 240 232 243 243 245 90 62 48 29 344 345 352 21 98 137 71 80 105 123 139 142 145 148 149 146 140 138 140 141 145 149 149 146 144 144 142 137 135 133 130 128 127 127 124 125
265 246 238 237 241 238 236 222 220 79 67 58 14 272 288 19 71 103 105 73 83 105 122 138 144 149 151 153 153 151 147 146 147 153 156 158 160 159 159 153 148 146 139 134 133 131 134 132 133
261 250 239 232 233 241 264 66 78 68 65 61 292 323 328 22 55 82 98 97 88 97 121 137 144 153 157 158 161 162 160 156 157 161 164 169 173 174 171 164 157 156 153 149 145 144 143 141 140
243 224 241 243 251 255 276 41 75 78 140 185 287 296 110 59 57 77 93 103 99 104 110 137 147 158 165 166 167 172 171 167 170 174 175 181 184 180 177 172 167 165 163 163 161 158 156 153 153
243 236 233 241 248 255 269 3 33 263 237 222 257 283 55 64 73 76 85 80 92 98 106 137 150 160 169 174 177 176 179 179 183 185 185 186 188 187 184 179 176 175 174 174 176 172 171 173 176
232 237 240 241 242 235 219 193 256 266 262 272 275 268 162 123 91 81 84 75 79 89 101 135 155 163 173 180 183 181 185 188 192 192 192 193 195 196 198 194 189 187 187 189 190 188 189 192 196
249 253 253 264 270 260 234 66 278 288 286 314 337 302 151 96 84 78 72 44 58 84 107 131 157 166 177 185 187 187 192 196 198 199 200 200 203 206 208 206 201 198 197 199 200 201 204 208 211
270 275 258 255 259 260 63 33 345 334 319 348 333 296 73 77 62 59 58 37 32 79 141 155 163 169 177 189 194 193 196 199 201 205 205 205 207 211 213 213 209 205 205 207 208 212 214 216 218
266 254 254 258 270 292 64 332 313 316 288 284 270 283 318 56 52 65 94 182 178 196 183 173 182 179 178 184 194 195 199 201 204 208 208 207 210 212 212 211 210 206 207 211 214 219 219 219 221
216 242 251 283 322 333 335 314 313 284 272 267 253 236 125 37 275 240 240 228 202 205 213 196 189 189 185 181 176 188 199 200 204 210 208 207 213 214 214 204 206 207 208 211 215 219 219 219 218
215 241 269 289 326 333 321 306 295 278 269 274 284 305 326 286 261 245 246 238 220 201 202 206 202 192 177 176 176 186 193 197 205 208 210 207 207 207 206 188 190 198 203 208 213 214 218 218 214
242 247 261 277 308 304 292 289 285 272 271 290 299 301 296 278 266 253 260 267 227 197 198 208 205 190 185 184 189 196 194 205 208 209 213 205 194 197 190 185 186 191 199 200 202 207 217 219 216
238 249 258 270 271 271 274 268 270 268 271 272 275 276 265 261 264 264 259 274 237 192 199 206 210 193 186 196 200 199 207 213 213 205 208 208 198 196 191 192 191 198 203 196 199 213 219 221 217
262 264 264 261 257 254 258 263 256 255 251 251 248 245 244 245 250 258 246 240 238 212 212 204 218 205 185 189 201 207 213 221 218 203 203 209 200 197 193 201 206 205 205 204 206 218 222 224 222
272 275 268 249 241 237 260 264 241 243 238 241 240 236 235 236 236 239 230 225 236 228 215 201 213 205 196 202 207 209 219 221 212 211 209 216 208 200 198 203 210 212 214 209 211 220 221 230 231
243 247 250 232 221 213 221 261 253 226 225 238 240 233 227 226 222 216 202 194 231 223 217 185 207 206 206 209 215 212 217 219 217 214 206 211 216 210 203 205 211 216 219 208 211 214 224 232 232
220 236 244 245 207 202 219 261 264 241 237 242 240 233 224 217 211 191 180 162 184 219 211 179 172 196 202 212 214 214 213 221 226 224 217 212 215 217 211 209 214 212 212 218 222 219 217 232 235
218 235 245 242 211 221 239 260 269 259 251 247 241 229 216 212 201 170 161 150 154 178 193 166 159 190 195 207 222 224 229 230 232 222 228 224 217 215 216 213 216 216 216 221 223 227 223 227 231
266 273 271 270 272 247 255 267 269 261 250 247 240 226 209 202 188 151 148 143 149 158 168 182 178 193 180 191 212 221 235 240 244 237 239 237 225 217 209 219 222 220 221 223 226 233 231 234 225
249 262 269 280 287 284 274 274 268 255 242 235 229 220 204 189 187 163 161 150 155 163 162 222 202 205 190 203 215 221 227 227 227 235 240 241 235 224 221 215 220 220 222 230 232 228 234 238 216
243 246 257 272 295 273 278 275 249 241 229 214 211 211 195 182 169 150 156 149 141 128 77 301 249 232 205 198 208 232 224 224 225 241 241 241 249 234 224 225 220 223 221 229 235 226 226 237 230
248 243 256 271 275 269 254 287 264 242 216 197 195 198 199 179 159 153 149 122 111 90 50 338 268 245 227 203 202 205 216 224 234 231 241 247 243 241 229 234 234 233 230 233 239 238 234 230 236
240 290 267 264 261 270 247 254 267 224 219 204 190 183 181 164 154 155 145 120 94 73 50 351 339 288 243 224 218 217 229 233 233 233 241 246 245 242 234 229 234 239 243 241 240 244 240 233 236
223 272 272 258 252 254 228 224 267 230 214 181 167 159 152 143 134 127 116 110 91 66 32 355 347 327 301 254 247 236 236 241 246 249 245 244 245 246 246 244 239 239 242 247 248 246 243 239 240
191 189 222 218 215 239 212 218 243 203 149 151 159 152 140 137 132 129 125 117 114 89 20 344 339 320 315 307 288 270 255 255 252 253 250 257 255 251 249 265 253 248 246 248 253 252 248 244 243
199 203 210 224 231 245 215 233 239 143 121 121 135 138 135 138 133 130 133 131 120 113 347 341 334 313 310 303 294 292 274 257 256 259 252 251 250 247 246 256 267 259 253 257 254 255 254 251 245
194 216 234 270 287 276 241 236 214 165 146 144 139 139 148 144 136 133 118 113 87 23 352 330 327 318 320 317 308 300 290 275 273 268 258 252 252 255 249 252 264 266 255 253 253 255 255 253 249
239 207 184 207 228 244 242 233 221 182 175 162 159 158 156 151 155 152 136 117 92 45 10 333 329 317 310 317 316 314 299 285 280 279 274 271 266 266 264 263 262 269 262 257 257 260 260 258 255
199 216 214 216 229 229 250 247 236 161 163 162 161 153 152 152 150 142 127 116 104 55 5 338 330 327 322 326 323 321 314 299 286 280 279 282 281 272 265 264 265 268 265 259 256 258 258 259 261
212 211 205 214 230 229 253 272 19 118 126 128 130 132 134 136 131 122 112 93 76 23 339 338 338 338 318 317 321 320 318 312 299 290 285 284 284 280 275 273 270 268 271 267 259 263 264 262 264
Height
1491 1492 1494 1497 1498 1497 1491 1475 1467 1468 1470 1473 1475 1476 1477 1478 1482 1491 1490 1488 1488 1487 1486 1487 1488 1489 1490 1492 1494 1495 1497 1498 1500 1501 1502 1503 1504 1505 1506 1507 1508 1509 1511 1512 1512 1513 1514 1515 1515
1490 1493 1497 1497 1496 1496 1484 1470 1469 1469 1472 1474 1476 1477 1477 1479 1482 1485 1486 1487 1487 1487 1486 1487 1488 1489 1490 1492 1493 1495 1497 1498 1499 1501 1502 1503 1504 1505 1506 1507 1508 1509 1510 1511 1512 1513 1513 1514 1515
1490 1493 1496 1492 1489 1487 1477 1467 1467 1470 1473 1475 1477 1477 1479 1481 1483 1485 1485 1486 1487 1487 1486 1486 1488 1489 1490 1491 1493 1494 1496 1497 1499 1500 1501 1502 1503 1504 1505 1506 1507 1508 1509 1510 1511 1512 1513 1514 1514
1491 1494 1493 1490 1485 1474 1469 1467 1469 1471 1474 1476 1477 1478 1479 1482 1483 1484 1485 1485 1486 1486 1486 1486 1487 1488 1490 1491 1492 1493 1495 1496 1498 1499 1500 1502 1503 1504 1505 1506 1506 1507 1508 1509 1510 1511 1512 1513 1513
1491 1491 1490 1487 1480 1471 1467 1467 1470 1472 1474 1475 1477 1478 1480 1481 1482 1483 1484 1485 1485 1486 1485 1486 1486 1487 1488 1490 1491 1492 1494 1495 1496 1498 1499 1500 1502 1503 1504 1505 1505 1506 1507 1508 1509 1510 1511 1511 1512
1491 1487 1488 1485 1475 1467 1466 1468 1471 1472 1473 1475 1476 1477 1479 1481 1481 1482 1483 1484 1484 1484 1484 1485 1485 1486 1487 1488 1489 1491 1492 1494 1495 1496 1498 1499 1500 1501 1502 1503 1504 1505 1506 1507 1508 1508 1509 1510 1511
1489 1486 1484 1477 1472 1468 1466 1469 1471 1472 1473 1475 1476 1477 1478 1479 1480 1481 1481 1482 1483 1483 1483 1483 1484 1484 1485 1487 1488 1489 1490 1492 1493 1495 1496 1497 1498 1500 1501 1501 1502 1503 1504 1505 1506 1507 1507 1508 1509
1487 1485 1480 1475 1472 1469 1468 1470 1472 1474 1474 1476 1477 1477 1477 1478 1478 1479 1480 1481 1481 1481 1482 1482 1483 1483 1484 1484 1486 1487 1488 1490 1491 1493 1494 1495 1496 1498 1499 1499 1500 1501 1502 1503 1504 1505 1505 1506 1507
1486 1488 1481 1473 1470 1469 1468 1471 1473 1474 1475 1476 1476 1477 1477 1477 1477 1478 1478 1479 1479 1479 1480 1480 1480 1481 1482 1482 1483 1485 1486 1487 1489 1490 1492 1493 1494 1495 1496 1497 1498 1499 1500 1501 1501 1502 1503 1504 1505
1484 1485 1476 1471 1469 1469 1470 1472 1473 1474 1474 1474 1474 1475 1475 1475 1476 1476 1476 1477 1477 1477 1477 1478 1478 1479 1480 1480 1481 1482 1483 1484 1486 1487 1488 1490 1491 1492 1493 1494 1495 1496 1497 1498 1499 1500 1500 1501 1502
1479 1477 1473 1471 1470 1471 1472 1473 1474 1473 1472 1472 1471 1472 1472 1473 1474 1474 1474 1474 1474 1474 1475 1475 1476 1476 1477 1478 1478 1479 1480 1481 1483 1484 1486 1487 1488 1490 1491 1491 1492 1493 1494 1495 1496 1496 1497 1498 1498
1475 1472 1472 1471 1472 1472 1473 1473 1473 1471 1470 1470 1470 1470 1470 1470 1471 1471 1471 1471 1471 1471 1472 1472 1473 1474 1474 1475 1476 1477 1478 1479 1480 1481 1482 1484 1485 1486 1487 1488 1489 1490 1491 1491 1492 1493 1494 1495 1495
1473 1471 1470 1470 1471 1471 1472 1471 1471 1468 1467 1467 1467 1467 1467 1468 1468 1468 1468 1468 1468 1468 1469 1469 1470 1471 1471 1472 1473 1474 1475 1476 1477 1478 1479 1481 1482 1483 1483 1485 1486 1486 1487 1488 1489 1489 1490 1491 1492
1469 1468 1468 1468 1468 1468 1469 1467 1467 1462 1463 1463 1464 1464 1464 1465 1465 1465 1465 1465 1465 1465 1466 1466 1467 1468 1468 1469 1470 1471 1472 1473 1474 1475 1476 1477 1478 1479 1480 1481 1482 1483 1484 1484 1485 1486 1487 1487 1488
1469 1469 1466 1464 1464 1464 1466 1464 1460 1458 1459 1459 1460 1460 1460 1461 1461 1461 1461 1462 1462 1462 1463 1463 1463 1464 1465 1465 1466 1467 1468 1470 1470 1471 1472 1473 1474 1475 1476 1477 1478 1479 1480 1481 1481 1482 1483 1483 1484
1468 1469 1467 1458 1458 1460 1467 1463 1453 1453 1454 1455 1455 1456 1456 1456 1457 1457 1458 1458 1458 1459 1459 1460 1460 1461 1461 1462 1463 1464 1465 1466 1466 1467 1468 1469 1470 1471 1472 1473 1473 1475 1476 1476 1477 1478 1478 1479 1479
1467 1467 1462 1457 1454 1456 1460 1458 1451 1450 1450 1450 1451 1452 1452 1453 1453 1454 1454 1455 1455 1456 1456 1457 1457 1457 1458 1459 1460 1460 1461 1462 1463 1463 1464 1465 1466 1467 1467 1468 1469 1470 1471 1472 1472 1473 1473 1474 1474
1463 1461 1457 1455 1451 1453 1456 1453 1448 1447 1447 1446 1447 1447 1448 1449 1450 1450 1451 1452 1452 1453 1453 1454 1454 1454 1455 1455 1456 1457 1458 1458 1459 1459 1460 1460 1461 1462 1462 1463 1464 1465 1465 1466 1467 1468 1469 1469 1469
1456 1457 1457 1451 1449 1452 1452 1449 1444 1443 1442 1442 1442 1443 1444 1445 1447 1447 1448 1448 1449 1450 1450 1450 1450 1451 1451 1452 1452 1453 1453 1454 1455 1455 1456 1456 1457 1457 1457 1458 1459 1460 1460 1461 1462 1463 1464 1464 1465
1457 1459 1456 1451 1448 1449 1449 1445 1439 1437 1436 1437 1438 1439 1440 1442 1443 1444 1445 1446 1446 1447 1447 1447 1447 1447 1448 1448 1449 1450 1450 1450 1451 1451 1452 1452 1452 1453 1453 1454 1455 1455 1455 1456 1456 1457 1458 1459 1460
1455 1457 1455 1453 1450 1448 1450 1444 1435 1430 1430 1431 1433 1435 1437 1439 1440 1441 1442 1443 1444 1444 1444 1444 1444 1444 1444 1444 1445 1446 1446 1446 1447 1447 1447 1448 1448 1449 1449 1450 1450 1450 1450 1450 1451 1452 1453 1453 1454
1454 1449 1450 1452 1456 1455 1451 1454 1434 1428 1427 1427 1429 1432 1434 1436 1437 1439 1440 1441 1441 1441 1441 1441 1441 1441 1441 1441 1441 1442 1442 1442 1442 1443 1443 1443 1444 1444 1444 1444 1445 1445 1445 1445 1446 1446 1447 1447 1447
1448 1447 1449 1451 1454 1456 1450 1455 1437 1425 1426 1425 1425 1429 1431 1433 1435 1437 1438 1438 1439 1439 1438 1438 1438 1438 1439 1439 1439 1439 1438 1439 1439 1439 1439 1439 1439 1439 1439 1439 1440 1440 1440 1440 1440 1440 1441 1441 1441
1446 1449 1450 1451 1455 1460 1446 1449 1436 1423 1419 1419 1422 1426 1429 1431 1433 1435 1436 1436 1437 1436 1436 1436 1436 1436 1436 1436 1436 1435 1435 1435 1435 1435 1435 1434 1434 1434 1434 1434 1434 1434 1434 1434 1434 1434 1435 1435 1435
1447 1454 1460 1459 1460 1452 1433 1436 1429 1416 1414 1415 1419 1423 1427 1430 1431 1433 1433 1434 1434 1434 1434 1434 1433 1433 1433 1432 1432 1432 1432 1432 1432 1431 1431 1430 1429 1429 1428 1428 1428 1428 1428 1428 1428 1428 1428 1428 1428
1444 1448 1455 1457 1450 1438 1431 1432 1421 1412 1412 1414 1417 1422 1425 1428 1430 1431 1431 1432 1432 1432 1432 1431 1431 1430 1430 1429 1429 1429 1429 1428 1428 1427 1427 1426 1425 1424 1423 1423 1423 1422 1422 1422 1422 1422 1422 1422 1422
1440 1443 1440 1447 1445 1447 1435 1422 1417 1412 1413 1415 1418 1421 1424 1426 1428 1429 1430 1430 1430 1430 1429 1429 1428 1427 1427 1427 1426 1425 1425 1424 1424 1423 1422 1421 1420 1419 1419 1418 1417 1417 1416 1416 1416 1415 1415 1415 1415
1435 1435 1442 1448 1449 1445 1429 1422 1419 1416 1414 1415 1417 1420 1422 1424 1426 1427 1427 1428 1428 1428 1427 1426 1425 1425 1424 1424 1423 1422 1421 1420 1419 1418 1417 1416 1415 1415 1414 1413 1412 1411 1410 1410 1409 1409 1408 1408 1408
1435 1436 1436 1438 1437 1440 1435 1423 1405 1407 1409 1412 1415 1418 1420 1422 1423 1424 1425 1426 1426 1426 1425 1424 1423 1422 1421 1420 1419 1418 1417 1416 1415 1414 1413 1412 1411 1410 1409 1407 1406 1405 1404 1403 1402 1402 1402 1401 1401
1425 1427 1432 1440 1437 1432 1434 1425 1404 1405 1408 1411 1414 1416 1418 1420 1421 1422 1423 1423 1424 1423 1423 1421 1420 1419 1417 1416 1415 1414 1413 1411 1410 1409 1408 1407 1405 1404 1403 1402 1400 1399 1398 1397 1396 1395 1394 1394 1393